EN

Hourly Weather Lachi

Today, 24 July, Saturday

Time Temperature Precipitation Wind Pressure Humidity
00:00 +28°C° 0 mm 4 mps 740 mmHg 69%
01:00 +28°C° 0 mm 4 mps 740 mmHg 68%
02:00 +28°C° 0 mm 3 mps 740 mmHg 68%
03:00 +28°C° 0 mm 3 mps 740 mmHg 69%
04:00 +28°C° 0 mm 3 mps 740 mmHg 70%
05:00 +27°C° 0 mm 2 mps 740 mmHg 71%
06:00 +29°C° 0 mm 2 mps 740 mmHg 65%
07:00 +30°C° 0 mm 2 mps 740 mmHg 58%
08:00 +32°C° 0 mm 1 mps 741 mmHg 51%
09:00 +34°C° 0 mm 2 mps 741 mmHg 45%
10:00 +35°C° 0 mm 2 mps 741 mmHg 39%
11:00 +36°C° 0 mm 3 mps 741 mmHg 34%
12:00 +37°C° 0 mm 3 mps 741 mmHg 34%
13:00 +37°C° 0 mm 3 mps 741 mmHg 33%
14:00 +37°C° 0 mm 3 mps 740 mmHg 33%
15:00 +36°C° 0 mm 4 mps 740 mmHg 37%
16:00 +36°C° 0 mm 4 mps 740 mmHg 40%
17:00 +35°C° 0 mm 4 mps 740 mmHg 44%
18:00 +34°C° 0 mm 5 mps 741 mmHg 51%
19:00 +32°C° 0 mm 5 mps 741 mmHg 58%
20:00 +30°C° 0 mm 5 mps 741 mmHg 65%
21:00 +29°C° 0 mm 5 mps 741 mmHg 67%
22:00 +29°C° 0 mm 5 mps 741 mmHg 69%
23:00 +29°C° 0 mm 4 mps 741 mmHg 71%

Tomorrow, 25 July, Sunday

Time Temperature Precipitation Wind Pressure Humidity
00:00 +29°C° 0 mm 4 mps 741 mmHg 71%
01:00 +28°C° 0 mm 3 mps 741 mmHg 70%
02:00 +28°C° 0 mm 3 mps 741 mmHg 70%
03:00 +28°C° 0 mm 2 mps 741 mmHg 71%
04:00 +27°C° 0 mm 2 mps 742 mmHg 73%
05:00 +27°C° 0 mm 1 mps 742 mmHg 74%
06:00 +28°C° 0 mm 1 mps 742 mmHg 67%
07:00 +30°C° 0 mm 1 mps 742 mmHg 59%
08:00 +31°C° 0 mm 1 mps 743 mmHg 52%
09:00 +34°C° 0 mm 2 mps 743 mmHg 48%
10:00 +35°C° 0 mm 2 mps 743 mmHg 43%
11:00 +36°C° 0 mm 2 mps 743 mmHg 39%
12:00 +36°C° 0 mm 3 mps 743 mmHg 40%
13:00 +36°C° 0 mm 3 mps 743 mmHg 40%
14:00 +36°C° 0 mm 3 mps 742 mmHg 41%
15:00 +35°C° 0 mm 3 mps 742 mmHg 43%
16:00 +35°C° 0 mm 3 mps 742 mmHg 46%
17:00 +34°C° 0 mm 3 mps 743 mmHg 48%
18:00 +33°C° 0 mm 3 mps 743 mmHg 54%
19:00 +31°C° 0 mm 3 mps 743 mmHg 60%
20:00 +30°C° 0 mm 3 mps 743 mmHg 65%
21:00 +29°C° 0 mm 3 mps 743 mmHg 68%
22:00 +29°C° 0 mm 3 mps 744 mmHg 71%
23:00 +28°C° 0 mm 3 mps 744 mmHg 74%

Day after tomorrow, 26 July, Monday

Time Temperature Precipitation Wind Pressure Humidity
00:00 +28°C° 0 mm 3 mps 743 mmHg 73%
01:00 +28°C° 0 mm 3 mps 743 mmHg 72%
02:00 +28°C° 0 mm 3 mps 743 mmHg 71%
03:00 +27°C° 0 mm 2 mps 743 mmHg 69%
04:00 +27°C° 0 mm 2 mps 744 mmHg 68%
05:00 +27°C° 0 mm 2 mps 744 mmHg 66%
06:00 +29°C° 0 mm 2 mps 744 mmHg 58%
07:00 +30°C° 0 mm 1 mps 744 mmHg 50%
08:00 +32°C° 0 mm 1 mps 745 mmHg 43%
09:00 +34°C° 0 mm 2 mps 745 mmHg 40%
10:00 +36°C° 0 mm 3 mps 745 mmHg 37%
11:00 +37°C° 0 mm 3 mps 745 mmHg 34%
12:00 +37°C° 0 mm 4 mps 745 mmHg 34%
13:00 +37°C° 0 mm 4 mps 745 mmHg 34%
14:00 +37°C° 0 mm 4 mps 744 mmHg 34%
15:00 +36°C° 0 mm 4 mps 744 mmHg 36%
16:00 +36°C° 0 mm 4 mps 744 mmHg 39%
17:00 +35°C° 0 mm 5 mps 744 mmHg 42%
18:00 +34°C° 0 mm 5 mps 744 mmHg 46%
19:00 +32°C° 0 mm 5 mps 744 mmHg 50%
20:00 +30°C° 0 mm 5 mps 745 mmHg 54%
21:00 +30°C° 0 mm 5 mps 745 mmHg 52%
22:00 +29°C° 0 mm 6 mps 745 mmHg 51%
23:00 +29°C° 0 mm 6 mps 745 mmHg 49%

27 July, Tuesday

Time Temperature Precipitation Wind Pressure Humidity
00:00 +29°C° 0 mm 5 mps 744 mmHg 47%
01:00 +29°C° 0 mm 5 mps 744 mmHg 44%
02:00 +29°C° 0 mm 4 mps 744 mmHg 42%
03:00 +29°C° 0 mm 4 mps 744 mmHg 43%
04:00 +29°C° 0 mm 3 mps 744 mmHg 43%
05:00 +28°C° 0 mm 3 mps 744 mmHg 44%
06:00 +30°C° 0 mm 3 mps 745 mmHg 42%
07:00 +32°C° 0 mm 2 mps 745 mmHg 39%
08:00 +35°C° 0 mm 2 mps 745 mmHg 37%
09:00 +36°C° 0 mm 2 mps 745 mmHg 34%
10:00 +37°C° 0 mm 2 mps 745 mmHg 32%
11:00 +38°C° 0 mm 2 mps 745 mmHg 29%
12:00 +39°C° 0 mm 3 mps 744 mmHg 28%
13:00 +39°C° 0 mm 3 mps 744 mmHg 26%
14:00 +40°C° 0 mm 3 mps 744 mmHg 24%
15:00 +39°C° 0 mm 3 mps 744 mmHg 26%
16:00 +40°C° 0 mm 4 mps 743 mmHg 28%
17:00 +38°C° 0 mm 4 mps 743 mmHg 30%
18:00 +37°C° 0 mm 4 mps 743 mmHg 36%
19:00 +35°C° 0 mm 4 mps 743 mmHg 42%
20:00 +33°C° 0 mm 4 mps 743 mmHg 48%
21:00 +33°C° 0 mm 5 mps 743 mmHg 47%
22:00 +32°C° 0 mm 6 mps 743 mmHg 45%
23:00 +32°C° 0 mm 6 mps 743 mmHg 44%

28 July, Wednesday

Time Temperature Precipitation Wind Pressure Humidity
00:00 +32°C° 0 mm 6 mps 743 mmHg 41%
01:00 +32°C° 0 mm 5 mps 742 mmHg 39%
02:00 +32°C° 0 mm 4 mps 742 mmHg 36%
03:00 +30°C° 0 mm 4 mps 742 mmHg 44%
04:00 +30°C° 0 mm 3 mps 742 mmHg 51%
05:00 +29°C° 0 mm 2 mps 742 mmHg 58%
06:00 +31°C° 0 mm 3 mps 743 mmHg 51%
07:00 +34°C° 0 mm 3 mps 743 mmHg 44%
08:00 +36°C° 0 mm 4 mps 743 mmHg 37%
09:00 +37°C° 0 mm 4 mps 743 mmHg 31%
10:00 +39°C° 0 mm 5 mps 743 mmHg 25%
11:00 +41°C° 0 mm 5 mps 743 mmHg 20%
12:00 +41°C° 0 mm 5 mps 742 mmHg 19%
13:00 +42°C° 0 mm 4 mps 742 mmHg 17%
14:00 +42°C° 0 mm 4 mps 742 mmHg 16%
15:00 +42°C° 0 mm 4 mps 741 mmHg 19%
16:00 +41°C° 0 mm 4 mps 741 mmHg 21%
17:00 +40°C° 0 mm 4 mps 741 mmHg 23%
18:00 +37°C° 0 mm 4 mps 741 mmHg 30%
19:00 +35°C° 0 mm 4 mps 741 mmHg 36%
20:00 +33°C° 0 mm 4 mps 741 mmHg 43%
21:00 +33°C° 0 mm 5 mps 741 mmHg 42%
22:00 +33°C° 0 mm 5 mps 741 mmHg 40%
23:00 +33°C° 0 mm 6 mps 741 mmHg 39%

29 July, Thursday

Time Temperature Precipitation Wind Pressure Humidity
00:00 +33°C° 0 mm 6 mps 741 mmHg 38%
01:00 +33°C° 0 mm 5 mps 741 mmHg 36%
02:00 +32°C° 0 mm 4 mps 740 mmHg 35%
03:00 +32°C° 0 mm 4 mps 740 mmHg 39%
04:00 +30°C° 0 mm 3 mps 740 mmHg 42%
05:00 +30°C° 0 mm 2 mps 740 mmHg 46%
06:00 +32°C° 0 mm 2 mps 741 mmHg 39%
07:00 +35°C° 0 mm 3 mps 741 mmHg 33%
08:00 +37°C° 0 mm 3 mps 741 mmHg 26%
09:00 +38°C° 0 mm 4 mps 741 mmHg 23%
10:00 +40°C° 0 mm 4 mps 741 mmHg 20%
11:00 +40°C° 0 mm 5 mps 741 mmHg 17%
12:00 +41°C° 0 mm 4 mps 741 mmHg 16%
13:00 +42°C° 0 mm 4 mps 740 mmHg 15%
14:00 +42°C° 0 mm 4 mps 740 mmHg 14%
15:00 +42°C° 0 mm 4 mps 740 mmHg 14%
16:00 +41°C° 0 mm 4 mps 740 mmHg 15%
17:00 +41°C° 0 mm 4 mps 739 mmHg 16%
18:00 +38°C° 0 mm 4 mps 740 mmHg 22%
19:00 +35°C° 0 mm 4 mps 740 mmHg 28%
20:00 +33°C° 0 mm 4 mps 740 mmHg 34%
21:00 +33°C° 0 mm 4 mps 740 mmHg 37%
22:00 +32°C° 0 mm 5 mps 740 mmHg 41%
23:00 +32°C° 0 mm 5 mps 740 mmHg 44%
Show more